Date String (YYYY-MM-DD hh:mm:ss) UTC,Instrument flags,Ambient pressure (hPa),Sample flow (lpm),Bypass flow (lpm),Sample temperature (°C),Ambient temperature (°C),ASC tube jacket temperature (°C),LED temperature (°C),Box temperature (°C),Sample RH (%),Span deviation,Mass concentration (μg/m³),Mass concentration (μg/m³),Mass concentration (μg/m³)
DateTimeUTC,F1_M11,P_M11,Q1_M11,Q2_M11,T1_M11,T2_M11,T3_M11,T4_M11,T5_M11,U1_M11,ZSPAN_M11,X2_M11,X0_M11,X1_M11
2021-11-05 11:00:00,,0824.6,5.00,0.00,27.9,27.0,00.0,37.0,29.6,10.0,0000.0,0000.92,0001.45,0000.77
2021-11-05 11:01:00,,0824.6,5.00,0.00,27.8,26.9,00.0,37.0,29.5,10.1,0000.0,0000.92,0001.73,0000.75
2021-11-05 11:02:00,,0824.6,5.00,0.00,27.8,26.9,00.0,37.0,29.5,10.1,0000.0,0000.91,0001.86,0000.74
2021-11-05 11:03:00,,0824.7,4.99,0.00,27.8,26.9,00.0,37.0,29.5,10.0,0000.0,0000.86,0001.76,0000.73
2021-11-05 11:04:00,,0824.9,5.01,0.00,27.8,26.9,00.0,37.0,29.5,10.2,0000.0,0000.86,0001.76,0000.72
2021-11-05 11:05:00,,0824.9,5.00,0.00,27.8,26.9,00.0,37.0,29.5,10.2,0000.0,0000.88,0001.79,0000.72
2021-11-05 11:06:00,,0824.9,5.00,0.00,27.8,26.9,00.0,37.0,29.5,10.2,0000.0,0000.89,0001.85,0000.73
2021-11-05 11:07:00,,0825.0,5.00,0.00,27.8,26.9,00.0,37.0,29.5,10.1,0000.0,0000.89,0001.83,0000.73
2021-11-05 11:08:00,,0825.0,4.99,0.00,27.8,26.9,00.0,36.9,29.5,10.1,0000.0,0000.88,0001.81,0000.73
2021-11-05 11:09:00,,0825.0,5.00,0.00,27.8,26.9,00.0,36.9,29.5,10.2,0000.0,0000.88,0001.81,0000.72
2021-11-05 11:10:00,,0825.0,5.00,0.00,27.8,26.9,00.0,36.9,29.5,10.1,0000.0,0000.87,0001.72,0000.73
2021-11-05 11:11:00,,0825.1,4.99,0.00,27.8,26.9,00.0,36.9,29.5,10.1,0000.0,0000.83,0001.50,0000.72
2021-11-05 11:12:00,,0825.1,5.01,0.00,27.8,26.9,00.0,36.9,29.5,10.2,0000.0,0000.82,0001.26,0000.72
2021-11-05 11:13:00,,0825.2,5.01,0.00,27.8,26.9,00.0,36.9,29.5,10.2,0000.0,0000.81,0001.04,0000.72
2021-11-05 11:14:00,,0825.1,4.99,0.00,27.8,26.9,00.0,36.9,29.5,10.1,0000.0,0000.84,0001.25,0000.72
2021-11-05 11:15:00,,0825.2,5.02,0.00,27.8,26.9,00.0,36.9,29.5,10.1,0000.0,0000.85,0001.39,0000.73
2021-11-05 11:16:00,,0825.2,5.00,0.00,27.8,26.9,00.0,36.9,29.5,10.1,0000.0,0000.83,0001.36,0000.73
2021-11-05 11:17:00,,0825.2,4.99,0.00,27.7,26.9,00.0,36.9,29.5,10.1,0000.0,0000.82,0001.33,0000.72
2021-11-05 11:18:00,,0825.1,5.00,0.00,27.7,26.9,00.0,36.9,29.5,10.1,0000.0,0000.81,0002.24,0000.71
2021-11-05 11:19:00,,0825.1,5.01,0.00,27.8,27.0,00.0,36.9,29.6,10.1,0000.0,0000.81,0002.52,0000.71
2021-11-05 11:20:00,,0825.2,4.99,0.00,27.8,27.0,00.0,36.9,29.6,10.1,0000.0,0000.82,0002.56,0000.71
2021-11-05 11:21:00,,0825.2,5.00,0.00,27.8,27.0,00.0,36.9,29.6,10.1,0000.0,0000.82,0002.59,0000.71
2021-11-05 11:22:00,,0825.1,5.00,0.00,27.8,27.1,00.0,36.9,29.6,10.2,0000.0,0000.83,0002.61,0000.72
2021-11-05 11:23:00,,0825.1,5.01,0.00,27.8,27.0,00.0,36.9,29.6,10.2,0000.0,0000.84,0002.66,0000.72
2021-11-05 11:24:00,,0825.0,4.99,0.00,27.8,27.0,00.0,36.9,29.6,10.2,0000.0,0000.84,0002.64,0000.73
2021-11-05 11:25:00,,0825.1,5.01,0.00,27.8,27.0,00.0,36.9,29.6,10.2,0000.0,0000.82,0002.48,0000.73
2021-11-05 11:26:00,,0825.0,5.01,0.00,27.8,27.0,00.0,36.9,29.6,10.3,0000.0,0000.81,0002.30,0000.73
2021-11-05 11:27:00,,0825.0,5.00,0.00,27.8,26.9,00.0,36.9,29.6,10.2,0000.0,0000.81,0002.30,0000.74
2021-11-05 11:28:00,,0825.1,5.00,0.00,27.8,26.9,00.0,36.9,29.5,10.3,0000.0,0000.82,0002.31,0000.74
2021-11-05 11:29:00,,0825.1,5.02,0.00,27.7,26.9,00.0,36.8,29.5,10.3,0000.0,0000.83,0001.64,0000.74
2021-11-05 11:30:00,,0825.1,5.01,0.00,27.7,26.9,00.0,36.8,29.5,10.2,0000.0,0000.84,0001.24,0000.75
2021-11-05 11:31:00,,0825.0,5.01,0.00,27.7,26.9,00.0,36.8,29.5,10.2,0000.0,0000.85,0001.28,0000.75
2021-11-05 11:32:00,,0825.1,5.00,0.00,27.7,26.9,00.0,36.8,29.5,10.2,0000.0,0000.85,0001.27,0000.76
2021-11-05 11:33:00,,0825.1,5.00,0.00,27.7,26.9,00.0,36.8,29.5,10.2,0000.0,0000.86,0001.36,0000.75
2021-11-05 11:34:00,,0825.1,5.00,0.00,27.7,26.9,00.0,36.8,29.4,10.3,0000.0,0000.86,0001.39,0000.75
2021-11-05 11:35:00,,0825.1,5.01,0.00,27.7,26.9,00.0,36.8,29.5,10.3,0000.0,0000.88,0001.40,0000.75
2021-11-05 11:36:00,,0825.1,5.01,0.00,27.7,26.8,00.0,36.8,29.4,10.3,0000.0,0000.88,0001.41,0000.74
2021-11-05 11:37:00,,0825.0,4.99,0.00,27.7,26.8,00.0,36.8,29.4,10.3,0000.0,0000.88,0001.45,0000.74
2021-11-05 11:38:00,,0824.9,4.99,0.00,27.7,26.8,00.0,36.8,29.4,10.3,0000.0,0000.90,0001.57,0000.74
2021-11-05 11:39:00,,0824.9,5.00,0.00,27.7,26.8,00.0,36.8,29.4,10.4,0000.0,0000.89,0001.56,0000.73
2021-11-05 11:40:00,,0825.0,5.01,0.00,27.7,26.8,00.0,36.8,29.4,10.4,0000.0,0000.88,0001.52,0000.73
2021-11-05 11:41:00,,0825.0,5.00,0.00,27.6,26.8,00.0,36.8,29.4,10.4,0000.0,0000.87,0001.45,0000.72
2021-11-05 11:42:00,,0825.1,5.00,0.00,27.6,26.8,00.0,36.8,29.4,10.4,0000.0,0000.87,0001.41,0000.73
2021-11-05 11:43:00,,0825.0,5.00,0.00,27.6,26.8,00.0,36.8,29.4,10.5,0000.0,0000.88,0001.42,0000.74
2021-11-05 11:44:00,,0825.1,5.00,0.00,27.6,26.8,00.0,36.8,29.4,10.4,0000.0,0000.89,0001.38,0000.74
2021-11-05 11:45:00,,0825.0,5.00,0.00,27.6,26.8,00.0,36.7,29.4,10.5,0000.0,0000.91,0001.37,0000.76
2021-11-05 11:46:00,,0825.0,5.00,0.00,27.6,26.8,00.0,36.7,29.4,10.6,0000.0,0000.91,0001.36,0000.77
2021-11-05 11:47:00,,0825.1,5.01,0.00,27.6,26.8,00.0,36.7,29.4,10.6,0000.0,0000.92,0001.38,0000.78
2021-11-05 11:48:00,,0825.2,5.00,0.00,27.6,26.8,00.0,36.7,29.3,10.6,0000.0,0000.96,0001.43,0000.79
2021-11-05 11:49:00,,0825.3,4.99,0.00,27.6,26.8,00.0,36.7,29.3,10.6,0000.0,0000.96,0001.36,0000.79
2021-11-05 11:50:00,,0825.3,5.01,0.00,27.6,26.8,00.0,36.7,29.4,10.6,0000.0,0000.98,0001.41,0000.80
2021-11-05 11:51:00,,0825.3,5.00,0.00,27.6,26.8,00.0,36.7,29.4,10.7,0000.0,0000.99,0001.50,0000.82
2021-11-05 11:52:00,,0825.3,4.99,0.00,27.6,26.9,00.0,36.7,29.4,10.6,0000.0,0001.01,0001.53,0000.84
2021-11-05 11:53:00,,0825.2,5.00,0.00,27.6,26.9,00.0,36.7,29.4,10.6,0000.0,0001.02,0001.53,0000.85
2021-11-05 11:54:00,,0825.2,5.01,0.00,27.6,26.9,00.0,36.7,29.4,10.7,0000.0,0001.03,0001.55,0000.86
2021-11-05 11:55:00,,0825.2,5.01,0.00,27.6,26.9,00.0,36.7,29.4,10.7,0000.0,0001.03,0001.56,0000.86
2021-11-05 11:56:00,,0825.2,4.99,0.00,27.6,26.9,00.0,36.7,29.4,10.8,0000.0,0001.00,0001.48,0000.86
2021-11-05 11:57:00,,0825.2,5.00,0.00,27.6,26.9,00.0,36.7,29.4,10.7,0000.0,0000.99,0001.47,0000.85
2021-11-05 11:58:00,,0825.3,5.00,0.00,27.6,26.8,00.0,36.7,29.4,10.8,0000.0,0001.00,0001.51,0000.85
2021-11-05 11:59:00,,0825.2,5.00,0.00,27.6,26.8,00.0,36.7,29.4,10.7,0000.0,0001.03,0001.55,0000.86
